FALCON 9 R/B, 56175

Orbit data source: Space-Track

FALCON 9 R/B, 56175 is space debris in HEO originally from a launch on Fri, 07 Apr 2023 UTC launched from the Air Force Eastern Test Range (AFETR). Debris objects in space refer to the collection of defunct objects orbiting the Earth. Examples of debris include non-operational satellites, rocket bodies, and fragments generated from explosions, collisions, or faulty payload assembly.

Loading next visibility...
Identifier
56175, 2023-052B
Orbit
HEO
Country
Flag of USUS
Related business
Manufacturer
SpaceX
Mission
Spacecraft
Bus & Motor
F9ST2, Unknown motor
Mass
~3,000 kg wet, ~3,000 kg dry
Launch date (UTC)
2023-04-07 (2 years ago)
Launch vehicle
Unknown
Launch site
Air Force Eastern Test Range (AFETR)
Object type
Payload
Rocket body
Debris
Shape & HBR
Cyl, 7.8 m
Radar Cross Section
39.980 m², Large (>1 m²)

Expand to show TLE details & history
Last TLE update: 18 hours ago

TLE from 18 hours ago
0 FALCON 9 R/B
1 56175U 23052B   25261.08902883  .00022760  00000-0  88354-3 0  9998
2 56175  27.1431 315.1996 6334051 290.6971  14.8388  3.61260560 28162
Epoch: 2025-09-18T02:08Z
TLE epoch observation values (Epoch: 2025-09-18T02:08:12.09Z)
Latitude
-0.00006°
Longitude
-74.06815°
Altitude
2,422.254 km
Speed
8.268 km/s
True Right ascension
21h 00m 57s
True Declination
0° 00' 00"
Sunlit
Object was in full shadow at epoch
Visualization orbit readout
Latitude
Unknown
Longitude
Unknown
Altitude
Unknown
Speed
Unknown
Apparent Right ascension
Unknown
Apparent Declination
Unknown
Sunlit
N/A
Visualization observer readout
Local Sidereal Time
13:00:58
Azimuth
Unknown
Elevation
Unknown
Doppler factor
Unknown
Orbital elements
Apogee altitude
22,933.305 km
Perigee altitude
200.406 km
Semi-major axis
17,944.992 km
Eccentricity
0.63341
Inclination
27.1431°
RAAN
315.1996°
Arg. of periapsis
290.6971°
True anomaly
69.44066°
Mean anomaly
14.8388°
Eccentric anomaly
36.34862°
Mean motion
0.90288 °/min
Orbital period
398.73 mins
BSTAR
0.00088354
Loading maneuver chart data...
Computing Atmospheric mass density...
Loading historical data...
Loading historical data...
Loading historical data...
Loading historical data...
Loading historical data...
Loading historical data...
Loading historical data...
Other satellites on launch #52 in the year 2023 (2023-04-07 UTC)

Documentation

Showing up to 5 results
|